This is the latest recevied weather packets stored in our database for station/object W5ZYX. If no packets are shown the sender has not sent any weather packets the latest 1 day(s).
| Time | Temp. | Humidity | Pressure | Rain* | Wind** | Luminosity | Snow |
|---|---|---|---|---|---|---|---|
| 1777977056 | 21.11° C | 89% | 1008.3 hPa | 0 mm | 1.79 m/s, 175° | - | - |
| 1777976739 | 21.11° C | 89% | 1008.2 hPa | 0 mm | 2.24 m/s, 209° | - | - |
| 1777976439 | 21.11° C | 89% | 1008.2 hPa | 0 mm | 2.24 m/s, 249° | - | - |
| 1777976155 | 21.11° C | 89% | 1008.2 hPa | 0 mm | 1.79 m/s, 174° | - | - |
| 1777975838 | 21.11° C | 89% | 1008.3 hPa | 0 mm | 2.24 m/s, 161° | - | - |
| 1777975538 | 21.11° C | 89% | 1008.3 hPa | 0 mm | 1.79 m/s, 180° | - | - |
| 1777975260 | 21.11° C | 89% | 1008.2 hPa | 0 mm | 1.79 m/s, 208° | - | - |
| 1777974937 | 21.11° C | 89% | 1008.3 hPa | 0 mm | 1.34 m/s, 225° | - | - |
| 1777974636 | 21.11° C | 89% | 1008.3 hPa | 0 mm | 1.79 m/s, 173° | - | - |
| 1777974361 | 21.11° C | 89% | 1008.3 hPa | 0 mm | 1.34 m/s, 200° | - | - |
| 1777974039 | 21.11° C | 89% | 1008.5 hPa | 0 mm | 1.34 m/s, 138° | - | - |
| 1777973739 | 21.11° C | 89% | 1008.4 hPa | 0 mm | 1.34 m/s, 174° | - | - |
| 1777973456 | 21.11° C | 89% | 1008.3 hPa | 0 mm | 1.79 m/s, 148° | - | - |
| 1777973140 | 20.56° C | 89% | 1008.5 hPa | 0 mm | 1.34 m/s, 165° | - | - |
| 1777972838 | 20.56° C | 89% | 1008.5 hPa | 0 mm | 0.89 m/s, 236° | - | - |
| 1777972551 | 20.56° C | 89% | 1008.6 hPa | 0 mm | 0.89 m/s, 165° | - | - |
| 1777972237 | 20.56° C | 89% | 1008.6 hPa | 0 mm | 1.34 m/s, 178° | - | - |
| 1777971939 | 20.56° C | 88% | 1008.7 hPa | 0 mm | 1.79 m/s, 175° | - | - |
| 1777971664 | 20.56° C | 88% | 1008.8 hPa | 0 mm | 1.34 m/s, 203° | - | - |
| 1777971338 | 20.56° C | 88% | 1008.7 hPa | 0 mm | 1.34 m/s, 198° | - | - |
| 1777971040 | 20.56° C | 88% | 1008.8 hPa | 0 mm | 1.34 m/s, 196° | - | - |
| 1777970758 | 20.56° C | 88% | 1008.8 hPa | 0 mm | 1.34 m/s, 200° | - | - |
| 1777970449 | 20.56° C | 88% | 1009 hPa | 0 mm | 1.34 m/s, 153° | - | - |
| 1777970140 | 20.56° C | 88% | 1009 hPa | 0 mm | 1.34 m/s, 189° | - | - |
| 1777969869 | 20.56° C | 88% | 1009.1 hPa | 0 mm | 0.89 m/s, 192° | - | - |
* Rain latest hour (hover to see other rain measurements)
** Current wind speed in m/s (hover to see current wind gust speed)